Location: Härggis
(46.9540°N, 8.4897°E)
Time: 21:54:11
(UTC+00:00)

Cosmos 2315 Rocket - Pass Details

Date: 27 May 2022
Orbit: 965 x 1002 km, 82.9° (Epoch: 03 July)

Event Time Altitude Azimuth Distance (km) Brightness Sun altitude
Exits shadow 00:18:32 35° 173° (S) 1,565 4.6 -20.6°
Maximum altitude 00:21:25 75° 95° (E) 1,039 4.1 -20.5°
Drops below altitude 10° 00:27:48 10° 12° (NNE) 2,786 7.6 -20.2°
Sets 00:30:21 0° 11° (N) 3,740 8.6 -20.1°
